星链-32345 (STARLINK-32345)

导读 | 豆包AI

STARLINK-32345是美国太空探索技术公司(SpaceX)星链互联网卫星星座的一员,于2024年8月31日发射入轨。星链项目旨在构建全球卫星互联网星座,为全球偏远地区、海洋空域等提供高速互联网接入服务。作为低轨卫星,该卫星加入星座后,进一步提升了星链系统的全球覆盖能力和服务容量,推进SpaceX星链组网进程。

基本信息
目录编号:
60920
目录名称:
STARLINK-32345
国际标识:
2024-154T
轨道中心:
EARTH
卫星名称:
星链-32345
卫星全名:
星链-32345 (STARLINK-32345)
卫星状态:
在轨 (已飞行561 天)
发射日期:
2024-08-31 UTC
国别 :
美国 (US)
星等 :
--
轨道信息
数据来源 国际轨道数据 AOE轨道数据
星历时间 2026-03-15T03:15:20+0800
17小时前
查看轨道信息
2026-03-13T17:00:00+0800
2天前
查看轨道信息
半长轴 6853.373km 6853.359km
偏心率 0.0000942 0.0001503
轨道倾角 53.159° 53.160°
近地点辐角 83.178° 90.519°
升交点赤经 260.381° 267.014°
平近点角 276.932° 322.634°
近地点 474.59km 474.191km
远地点 475.882km 476.253km
周期 94.106分钟 94.105分钟
每日圈数 15.301932 15.301977
详细信息
固有亮度:
5
最大亮度:
2.5
卫星平台:
Starlink V1.0
覆盖范围:
全球
运营商:
太空探索技术公司
运营商所在国:
美国
制造商(研发单位):
太空探索技术公司
制造商所在国:
美国
使用方式:
暂无
卫星简介
Starlink 计划是 SpaceX 推出的全球卫星互联网项目,通过发射低轨道卫星,为全球尤其是偏远地区提供高速、低延迟的互联网服务。自 2019 年起,Starlink 已部署数千颗卫星,旨在缩小全球数字鸿沟,推动互联网普及。该项目还为军事、航空等行业提供通信支持,带来广泛经济效益。
2D轨道图
3D轨道图
轨道高度分析图
轨道倾角分析图
轨道综合分析图
查看轨道综合分析图